This is the latest recevied weather packets stored in our database for station/object N4ASP-13. If no packets are shown the sender has not sent any weather packets the latest 10 day(s).
| Time | Temp. | Humidity | Pressure | Rain* | Wind** | Luminosity | Snow |
|---|---|---|---|---|---|---|---|
| 1777994093 | 21.67° C | 50% | 1016.6 hPa | 0 mm | - | 942 W/m² | - |
| 1777994035 | 21.67° C | 49% | 1016.7 hPa | 0 mm | - | 954 W/m² | - |
| 1777993973 | 21.67° C | 51% | 1016.7 hPa | 0 mm | - | 953 W/m² | - |
| 1777993914 | 21.67° C | 51% | 1016.7 hPa | 0 mm | - | 939 W/m² | - |
| 1777993853 | 21.11° C | 50% | 1016.7 hPa | 0 mm | - | 942 W/m² | - |
| 1777993793 | 21.11° C | 49% | 1016.7 hPa | 0 mm | - | 949 W/m² | - |
| 1777993734 | 21.11° C | 48% | 1016.7 hPa | 0 mm | - | 960 W/m² | - |
| 1777993673 | 21.11° C | 47% | 1016.7 hPa | 0 mm | - | 944 W/m² | - |
| 1777993613 | 21.11° C | 48% | 1016.7 hPa | 0 mm | - | 951 W/m² | - |
| 1777993553 | 21.67° C | 50% | 1016.7 hPa | 0 mm | - | 940 W/m² | - |
| 1777993495 | 21.67° C | 50% | 1016.7 hPa | 0 mm | - | 967 W/m² | - |
| 1777993434 | 21.11° C | 52% | 1016.7 hPa | 0 mm | - | 956 W/m² | - |
| 1777993373 | 21.11° C | 51% | 1016.7 hPa | 0 mm | - | 956 W/m² | - |
| 1777993314 | 21.67° C | 53% | 1016.9 hPa | 0 mm | - | 949 W/m² | - |
| 1777993253 | 21.11° C | 52% | 1016.9 hPa | 0 mm | - | 947 W/m² | - |
| 1777993194 | 21.11° C | 53% | 1016.9 hPa | 0 mm | - | 954 W/m² | - |
| 1777993135 | 21.11° C | 51% | 1016.7 hPa | 0 mm | - | 946 W/m² | - |
| 1777993075 | 21.11° C | 54% | 1016.7 hPa | 0 mm | - | 949 W/m² | - |
| 1777993010 | 21.11° C | 52% | 1016.7 hPa | 0 mm | - | 940 W/m² | - |
| 1777992950 | 21.11° C | 51% | 1016.7 hPa | 0 mm | - | 942 W/m² | - |
| 1777992891 | 21.11° C | 52% | 1016.7 hPa | 0 mm | - | 946 W/m² | - |
| 1777992829 | 20.56° C | 53% | 1016.7 hPa | 0 mm | - | 946 W/m² | - |
| 1777992769 | 20.56° C | 51% | 1016.7 hPa | 0 mm | - | 944 W/m² | - |
| 1777992709 | 20.56° C | 52% | 1016.6 hPa | 0 mm | - | 940 W/m² | - |
| 1777992651 | 20.56° C | 51% | 1016.7 hPa | 0 mm | - | 942 W/m² | - |
* Rain latest hour (hover to see other rain measurements)
** Current wind speed in m/s (hover to see current wind gust speed)